When you browse on this site, cookies collect data to enhance your experience and personalize the content and advertising you see.
Visit our Privacy Policy to learn more. By continuing to use the site, you agree to this use of cookies and data.
  • In United Kingdom
  • List of Countries
  • For 7 days
  • Water Temperature
  • Satellite Maps
  • Weather Map
  • Weather Widgets
  • user-avatar
    Login

    Hourly Weather Pyiterfolvo

    Today, 19 June, Wednesday

    Time Temperature Precipitation Wind Pressure Humidity
    00:00 +24°C° 0 mm 2 mps 750 mmHg 90%
    01:00 +23°C° 0 mm 2 mps 750 mmHg 91%
    02:00 +21°C° 0 mm 1 mps 751 mmHg 86%
    03:00 +20°C° 0 mm 1 mps 750 mmHg 91%
    04:00 +18°C° 0 mm 0 mps 751 mmHg 90%
    05:00 +20°C° 0 mm 1 mps 750 mmHg 91%
    06:00 +20°C° 0 mm 1 mps 751 mmHg 92%
    07:00 +22°C° 0 mm 1 mps 751 mmHg 91%
    08:00 +24°C° 0 mm 2 mps 751 mmHg 82%
    09:00 +25°C° 0 mm 2 mps 751 mmHg 80%
    10:00 +26°C° 0 mm 2 mps 751 mmHg 78%
    11:00 +28°C° 0 mm 2 mps 751 mmHg 73%
    12:00 +29°C° 0 mm 1 mps 750 mmHg 68%
    13:00 +30°C° 0 mm 2 mps 750 mmHg 65%
    14:00 +30°C° 0 mm 2 mps 749 mmHg 66%
    15:00 +30°C° 0 mm 2 mps 748 mmHg 63%
    16:00 +30°C° 0 mm 1 mps 748 mmHg 59%
    17:00 +31°C° 0 mm 1 mps 748 mmHg 57%
    18:00 +30°C° 0 mm 2 mps 748 mmHg 59%
    19:00 +30°C° 0 mm 2 mps 747 mmHg 69%
    20:00 +28°C° 0 mm 2 mps 747 mmHg 74%
    21:00 +26°C° 0 mm 2 mps 748 mmHg 79%
    22:00 +25°C° 0 mm 2 mps 748 mmHg 86%
    23:00 +24°C° 0 mm 2 mps 748 mmHg 88%

    Tomorrow, 20 June, Thursday

    Time Temperature Precipitation Wind Pressure Humidity
    00:00 +23°C° 0 mm 2 mps 748 mmHg 92%
    01:00 +23°C° 0 mm 2 mps 748 mmHg 94%
    02:00 +23°C° 0 mm 2 mps 748 mmHg 93%
    03:00 +21°C° 0 mm 2 mps 748 mmHg 93%
    04:00 +21°C° 0 mm 2 mps 747 mmHg 93%
    05:00 +20°C° 0 mm 2 mps 748 mmHg 93%
    06:00 +21°C° 0 mm 2 mps 748 mmHg 93%
    07:00 +22°C° 0 mm 3 mps 748 mmHg 90%
    08:00 +24°C° 0 mm 3 mps 748 mmHg 90%
    09:00 +25°C° 0 mm 2 mps 749 mmHg 89%
    10:00 +26°C° 0 mm 1 mps 748 mmHg 87%
    11:00 +27°C° 0 mm 1 mps 748 mmHg 83%
    12:00 +28°C° 0 mm 2 mps 748 mmHg 80%
    13:00 +29°C° 0 mm 2 mps 748 mmHg 75%
    14:00 +30°C° 0 mm 3 mps 747 mmHg 74%
    15:00 +30°C° 0 mm 3 mps 747 mmHg 71%
    16:00 +30°C° 0 mm 3 mps 747 mmHg 73%
    17:00 +30°C° 0 mm 3 mps 747 mmHg 73%
    18:00 +29°C° 0 mm 2 mps 747 mmHg 75%
    19:00 +29°C° 0 mm 2 mps 747 mmHg 74%
    20:00 +27°C° 0 mm 2 mps 747 mmHg 85%
    21:00 +25°C° 0 mm 3 mps 748 mmHg 89%
    22:00 +24°C° 0 mm 1 mps 748 mmHg 92%
    23:00 +24°C° 0 mm 2 mps 748 mmHg 95%

    Day after tomorrow, 21 June, Friday

    Time Temperature Precipitation Wind Pressure Humidity
    00:00 +23°C° 0 mm 1 mps 748 mmHg 97%
    01:00 +23°C° 0 mm 1 mps 748 mmHg 98%
    02:00 +23°C° 0 mm 1 mps 748 mmHg 97%
    03:00 +22°C° 0 mm 1 mps 748 mmHg 96%
    04:00 +22°C° 0 mm 1 mps 748 mmHg 95%
    05:00 +22°C° 0 mm 1 mps 749 mmHg 96%
    06:00 +21°C° 0 mm 2 mps 749 mmHg 96%
    07:00 +24°C° 0 mm 1 mps 749 mmHg 95%
    08:00 +25°C° 0 mm 1 mps 749 mmHg 94%
    09:00 +26°C° 0 mm 1 mps 749 mmHg 91%
    10:00 +27°C° 0 mm 1 mps 749 mmHg 88%
    11:00 +28°C° 0 mm 1 mps 749 mmHg 85%
    12:00 +28°C° 0 mm 2 mps 749 mmHg 83%
    13:00 +29°C° 0 mm 2 mps 748 mmHg 81%
    14:00 +29°C° 0 mm 2 mps 748 mmHg 79%
    15:00 +29°C° 0 mm 3 mps 747 mmHg 81%
    16:00 +29°C° 0 mm 2 mps 747 mmHg 80%
    17:00 +29°C° 0 mm 3 mps 747 mmHg 83%
    18:00 +29°C° 0 mm 2 mps 748 mmHg 83%
    19:00 +28°C° 0 mm 3 mps 748 mmHg 85%
    20:00 +27°C° 0 mm 3 mps 748 mmHg 90%
    21:00 +26°C° 0 mm 1 mps 748 mmHg 92%
    22:00 +25°C° 0 mm 3 mps 748 mmHg 94%
    23:00 +25°C° 0 mm 1 mps 748 mmHg 95%

    22 June, Saturday

    Time Temperature Precipitation Wind Pressure Humidity
    00:00 +24°C° 0 mm 1 mps 749 mmHg 95%
    01:00 +24°C° 0 mm 2 mps 748 mmHg 96%
    02:00 +23°C° 0 mm 2 mps 748 mmHg 96%
    03:00 +23°C° 0 mm 2 mps 749 mmHg 97%
    04:00 +21°C° 0 mm 2 mps 749 mmHg 97%
    05:00 +21°C° 0 mm 2 mps 749 mmHg 97%
    06:00 +23°C° 0 mm 2 mps 749 mmHg 96%
    07:00 +24°C° 0 mm 2 mps 749 mmHg 95%
    08:00 +25°C° 0 mm 2 mps 750 mmHg 94%
    09:00 +26°C° 0 mm 1 mps 750 mmHg 93%
    10:00 +26°C° 0 mm 1 mps 750 mmHg 88%
    11:00 +27°C° 0.6 mm 1 mps 749 mmHg 89%
    12:00 +25°C° 3.9 mm 5 mps 749 mmHg 94%
    13:00 +27°C° 0.3 mm 1 mps 749 mmHg 86%
    14:00 +28°C° 0 mm 1 mps 748 mmHg 83%
    15:00 +29°C° 0.1 mm 2 mps 748 mmHg 82%
    16:00 +27°C° 1 mm 4 mps 748 mmHg 85%
    17:00 +28°C° 0 mm 2 mps 748 mmHg 82%
    18:00 +28°C° 0 mm 2 mps 748 mmHg 84%
    19:00 +28°C° 0 mm 2 mps 748 mmHg 87%
    20:00 +27°C° 0 mm 3 mps 748 mmHg 90%
    21:00 +24°C° 0 mm 0 mps 748 mmHg 91%
    22:00 +24°C° 0 mm 0 mps 748 mmHg 92%
    23:00 +25°C° 0 mm 1 mps 748 mmHg 94%

    23 June, Sunday

    Time Temperature Precipitation Wind Pressure Humidity
    00:00 +24°C° 0 mm 1 mps 748 mmHg 95%
    01:00 +24°C° 0 mm 1 mps 748 mmHg 96%
    02:00 +23°C° 0 mm 2 mps 748 mmHg 94%

    24 June, Monday

    Time Temperature Precipitation Wind Pressure Humidity
    Show more